Alexandria, LA

4:26 PM CDT on March 27, 2017 (GMT -0500)
Alexandria International

Weather History for KAEX - February, 1998

Change the Weather History Date:

Monday, February 9, 1998

  Actual Average Record
Temperature  
Mean Temperature 54 °F 51 °F  
Max Temperature 66 °F 62 °F 84 °F (1957)
Min Temperature 42 °F 40 °F 15 °F (1933)
Degree Days  
Heating Degree Days 11 15  
Month to date heating degree days 137  
Since 1 July heating degree days 1428  
Growing Degree Days 4 (Base 50)    
Moisture  
Dew Point 46 °F    
Average Humidity 77    
Maximum Humidity 93    
Minimum Humidity 55    
Precipitation  
Precipitation 0.00 in 0.15 in 2.79 in (1980)
Month to date precipitation 1.38  
Year to date precipitation 6.60  
Snow  
Snow 0.00 in - T in (1973)
Month to date snowfall  
Since 1 July snowfall  
Snow Depth -    
Sea Level Pressure  
Sea Level Pressure 29.99 in    
Wind  
Wind Speed 7 mph (SE)    
Max Wind Speed 16 mph    
Max Gust Speed -    
Visibility 6 miles    
Events      
T = Trace of Precipitation, MM = Missing Value Source: NWS Daily Summary

Daily Weather History Graph

Daily Weather History Graph

Search for Another Location

Airport or City:

Trip Planner

Search our weather history database for the weather conditions in past years. The results will help you decide how hot, cold, wet, or windy it might be!

Date:

Astronomy

Feb. 09, 1998 Rise Set
Actual Time 6:56 AM CST 5:52 PM CST
Civil Twilight 6:31 AM CST 6:17 PM CST
Nautical Twilight 6:03 AM CST 6:46 PM CST
Astronomical Twilight 5:34 AM CST 7:14 PM CST
Moon 4:32 PM CST (2/9) 5:33 AM CST (2/9)
Length of Visible Light 11h 45m
Length of Day
10h 55m
Waxing Gibbous, 97% of the Moon is Illuminated
Feb 9
Waxing Gibbous
Feb 11
Full
Feb 19
Last Quarter
Feb 26
New
Mar 5
First Quarter

Hourly Weather History & Observations

Time (CST) Temp. Windchill Dew Point Humidity Pressure Visibility Wind Dir Wind Speed Gust Speed Precip Events Conditions
12:50 AM 46.4 °F 44.3 °F 42.8 °F 87% 30.04 in 7.0 mi SSE 4.6 mph - N/A   Overcast
1:50 AM 42.8 °F - 39.2 °F 87% 30.03 in 7.0 mi Calm Calm - N/A   Scattered Clouds
2:50 AM 42.8 °F 40.1 °F 39.2 °F 87% 30.03 in 7.0 mi East 4.6 mph - N/A   Mostly Cloudy
3:50 AM 42.8 °F - 41.0 °F 93% 30.03 in 7.0 mi Calm Calm - N/A   Overcast
4:50 AM 42.8 °F 40.1 °F 41.0 °F 93% 30.02 in 7.0 mi ESE 4.6 mph - N/A   Mostly Cloudy
5:50 AM 42.8 °F 39.3 °F 39.2 °F 87% 30.02 in 7.0 mi ESE 5.8 mph - N/A   Clear
6:50 AM 42.8 °F - 39.2 °F 87% 30.02 in 7.0 mi North - - N/A   Mostly Cloudy
7:50 AM 46.4 °F 42.4 °F 41.0 °F 81% 30.02 in 7.0 mi ESE 8.1 mph - N/A   Mostly Cloudy
8:50 AM 48.2 °F - 41.0 °F 76% 30.04 in 7.0 mi ESE 6.9 mph - N/A   Mostly Cloudy
9:50 AM 50.0 °F - 41.0 °F 71% 30.05 in 7.0 mi ESE 9.2 mph - N/A   Mostly Cloudy
10:50 AM 57.2 °F - 42.8 °F 59% 30.05 in 10.0 mi SE 11.5 mph - N/A   Mostly Cloudy
11:50 AM 62.6 °F - 46.4 °F 55% 30.02 in 10.0 mi SE 9.2 mph - N/A   Mostly Cloudy
12:55 PM 62.6 °F - 46.4 °F 55% 29.99 in 10.0 mi SE 9.2 mph - N/A   Mostly Cloudy
1:55 PM 64.4 °F - 48.2 °F 56% 29.98 in 5.0 mi SSE 13.8 mph - N/A   Haze
2:50 PM 66.2 °F - 51.8 °F 60% 29.95 in 5.0 mi SSE 13.8 mph - N/A   Haze
3:50 PM 66.2 °F - 51.8 °F 60% 29.95 in 5.0 mi SE 11.5 mph - N/A   Haze
4:55 PM 64.4 °F - 53.6 °F 68% 29.94 in 4.0 mi SE 13.8 mph - N/A   Haze
5:50 PM 60.8 °F - 51.8 °F 72% 29.94 in 4.0 mi SE 13.8 mph - N/A   Haze
6:50 PM 57.2 °F - 51.8 °F 82% 29.94 in 4.0 mi SE 16.1 mph - N/A   Haze
7:47 PM 57.2 °F - 51.8 °F 82% 29.95 in 4.0 mi SE 16.1 mph - N/A   Haze
8:50 PM 55.4 °F - 51.8 °F 88% 29.96 in 4.0 mi SE 11.5 mph - N/A   Haze
9:50 PM 55.4 °F - 51.8 °F 88% 29.96 in 4.0 mi SE 11.5 mph - N/A   Haze
10:50 PM 55.4 °F - 51.8 °F 88% 29.96 in 6.0 mi SE 16.1 mph - N/A   Overcast
11:47 PM 55.4 °F - 51.8 °F 88% 29.97 in 6.0 mi SSE 11.5 mph - N/A   Overcast